Weather History for Charlevoix, MI

Change the Weather History Date:

Thursday, April 18, 2013

  Actual Average Record
Temperature  
Mean Temperature 40 °F -  
Max Temperature 46 °F 43 °F 82 °F (2002)
Min Temperature 36 °F 32 °F 25 °F (2012)
Degree Days  
Heating Degree Days 24    
Moisture  
Dew Point 40 °F    
Average Humidity 99    
Maximum Humidity 100    
Minimum Humidity 93    
Precipitation  
Precipitation 0.00 in - - ()
Sea Level Pressure  
Sea Level Pressure 29.69 in    
Wind  
Wind Speed 10 mph (East)    
Max Wind Speed 17 mph    
Max Gust Speed 20 mph    
Visibility 7 miles    
Events Fog , Rain    
Averages and records for this station are not official NWS values.
T = Trace of Precipitation, MM = Missing Value Source: NWS Daily Summary

Daily Weather History Graph

Daily Weather History Graph

Search for Another Location

Airport:

Trip Planner

Search our weather history database for the weather conditions in past years. The results will help you decide how hot, cold, wet, or windy it might be!

Date:

Astronomy

Apr. 18, 2013 Rise Set
Actual Time 6:50 AM EDT 8:31 PM EDT
Civil Twilight 6:19 AM EDT 9:02 PM EDT
Nautical Twilight 5:41 AM EDT 9:40 PM EDT
Astronomical Twilight 5:00 AM EDT 10:21 PM EDT
Moon 12:58 PM EDT (4/18) 2:49 AM EDT (4/18)
Length of Visible Light 14h 43m
Length of Day
13h 40m
First Quarter, 51% of the Moon is Illuminated
Apr 18
First Quarter
Apr 25
Full
May 2
Last Quarter
May 9
New
May 18
First Quarter

Hourly Weather History & Observations

Time (EDT) Temp. Windchill Dew Point Humidity Pressure Visibility Wind Dir Wind Speed Gust Speed Precip Events Conditions
12:14 AM 36.3 °F 28.9 °F 35.4 °F 97% 30.09 in 3.0 mi East 10.4 mph - N/A Rain Light Rain
12:35 AM 36.5 °F 30.3 °F 35.8 °F 97% 30.08 in 5.0 mi East 8.1 mph - N/A   Overcast
12:54 AM 36.5 °F 29.2 °F 36.3 °F 99% 30.06 in 7.0 mi East 10.4 mph - N/A   Overcast
1:15 AM 36.7 °F 29.9 °F 36.5 °F 99% 30.05 in 10.0 mi East 9.2 mph - N/A   Overcast
1:34 AM 36.9 °F 30.7 °F 36.3 °F 98% 30.04 in 10.0 mi East 8.1 mph - N/A   Overcast
1:54 AM 37.0 °F 30.4 °F 36.5 °F 98% 30.02 in 10.0 mi East 9.2 mph - N/A   Overcast
2:15 AM 37.4 °F 30.3 °F 36.9 °F 98% 30.00 in 10.0 mi East 10.4 mph - N/A   Overcast
2:34 AM 37.6 °F 30.0 °F 36.9 °F 97% 29.99 in 10.0 mi East 11.5 mph - N/A   Overcast
2:54 AM 37.6 °F 29.6 °F 36.7 °F 97% 29.97 in 10.0 mi ESE 12.7 mph - N/A   Overcast
3:15 AM 37.9 °F 30.5 °F 36.9 °F 96% 29.95 in 10.0 mi ESE 11.5 mph - N/A   Overcast
3:34 AM 38.5 °F 30.7 °F 37.0 °F 95% 29.94 in 10.0 mi ESE 12.7 mph - N/A   Overcast
3:54 AM 38.8 °F 30.8 °F 37.4 °F 95% 29.92 in 10.0 mi East 13.8 mph - N/A   Overcast
4:15 AM 38.8 °F 31.2 °F 37.2 °F 94% 29.90 in 10.0 mi ESE 12.7 mph - N/A   Overcast
4:34 AM 39.2 °F 31.2 °F 37.4 °F 93% 29.88 in 10.0 mi ESE 13.8 mph - N/A   Overcast
4:55 AM 39.2 °F 30.8 °F 37.4 °F 93% 29.85 in 10.0 mi East 15.0 mph - N/A   Overcast
5:14 AM 39.2 °F 31.2 °F 37.4 °F 93% 29.84 in 10.0 mi East 13.8 mph - N/A   Overcast
5:34 AM 39.2 °F 31.2 °F 37.9 °F 95% 29.83 in 7.0 mi ESE 13.8 mph - N/A Rain Light Rain
5:54 AM 38.8 °F 30.4 °F 38.3 °F 98% 29.82 in 3.0 mi East 15.0 mph 19.6 mph N/A   Overcast
6:14 AM 38.7 °F 30.5 °F 38.3 °F 99% 29.81 in 3.0 mi ESE 13.8 mph - N/A   Unknown
6:34 AM 38.5 °F 29.6 °F 38.5 °F 100% 29.79 in 5.0 mi East 16.1 mph - N/A   Overcast
6:54 AM 38.7 °F 29.8 °F 38.7 °F 100% 29.77 in 4.0 mi ESE 16.1 mph - N/A Rain Light Rain
7:15 AM 38.8 °F 29.7 °F 38.8 °F 100% 29.76 in 4.0 mi ESE 17.3 mph - N/A   Unknown
7:34 AM 38.5 °F 30.3 °F 38.5 °F 100% 29.74 in 7.0 mi East 13.8 mph - N/A Rain Light Rain
7:55 AM 38.7 °F 30.5 °F 38.7 °F 100% 29.73 in 4.0 mi ESE 13.8 mph - N/A Rain Light Rain
8:15 AM 38.8 °F 32.1 °F 38.8 °F 100% 29.71 in 7.0 mi ESE 10.4 mph - N/A   Overcast
8:34 AM 39.0 °F 32.3 °F 39.0 °F 100% 29.70 in 10.0 mi East 10.4 mph - N/A   Overcast
8:55 AM 39.6 °F 34.7 °F 39.6 °F 100% 29.69 in 10.0 mi East 6.9 mph - N/A   Overcast
9:15 AM 39.6 °F 33.0 °F 39.4 °F 99% 29.68 in 10.0 mi ESE 10.4 mph - N/A   Overcast
9:34 AM 39.6 °F 35.4 °F 39.2 °F 99% 29.70 in 10.0 mi SE 5.8 mph - N/A   Overcast
9:55 AM 40.1 °F 36.1 °F 39.7 °F 99% 29.70 in 10.0 mi East 5.8 mph - N/A   Overcast
10:14 AM 40.3 °F 38.2 °F 40.1 °F 99% 29.69 in 7.0 mi East 3.5 mph - N/A   Drizzle
10:34 AM 40.3 °F 38.2 °F 40.3 °F 100% 29.68 in 2.5 mi NE 3.5 mph - N/A Rain Rain
10:55 AM 40.8 °F 38.8 °F 40.8 °F 100% 29.68 in 3.0 mi North 3.5 mph - N/A Rain Rain
11:14 AM 40.3 °F 35.5 °F 40.3 °F 100% 29.67 in 4.0 mi North 6.9 mph - N/A   Light Drizzle
11:34 AM 40.3 °F 38.2 °F 40.3 °F 100% 29.68 in 4.0 mi NE 3.5 mph - N/A Rain Rain
11:55 AM 40.1 °F 34.7 °F 40.1 °F 100% 29.65 in 4.0 mi East 8.1 mph - N/A Rain Rain
12:14 PM 39.7 °F 34.3 °F 39.7 °F 100% 29.64 in 7.0 mi East 8.1 mph - N/A Rain Rain
12:34 PM 40.1 °F 34.7 °F 40.1 °F 100% 29.63 in 7.0 mi East 8.1 mph - N/A Rain Rain
12:54 PM 40.3 °F 34.9 °F 40.3 °F 100% 29.60 in 5.0 mi ESE 8.1 mph - N/A Rain Rain
1:14 PM 40.3 °F 35.5 °F 40.3 °F 100% 29.58 in 4.0 mi ESE 6.9 mph - N/A Rain Light Rain
1:35 PM 41.2 °F 34.5 °F 41.2 °F 100% 29.57 in 5.0 mi ESE 11.5 mph - N/A Rain Light Rain
1:54 PM 41.9 °F 36.3 °F 41.9 °F 100% 29.55 in 10.0 mi ESE 9.2 mph - N/A Rain Light Rain
2:14 PM 42.8 °F 37.5 °F 42.8 °F 100% 29.55 in 7.0 mi ESE 9.2 mph - N/A   Mostly Cloudy
2:35 PM 43.5 °F 40.1 °F 43.5 °F 100% 29.57 in 10.0 mi ESE 5.8 mph - N/A   Overcast
2:54 PM 44.1 °F 40.8 °F 44.1 °F 100% 29.58 in 10.0 mi East 5.8 mph - N/A   Overcast
3:14 PM 44.4 °F 41.2 °F 44.1 °F 99% 29.57 in 10.0 mi East 5.8 mph - N/A   Overcast
3:35 PM 45.1 °F 41.4 °F 44.6 °F 98% 29.56 in 10.0 mi East 6.9 mph - N/A   Overcast
3:54 PM 44.8 °F 41.0 °F 44.1 °F 97% 29.56 in 10.0 mi ESE 6.9 mph - N/A   Overcast
4:35 PM 45.7 °F 43.4 °F 45.0 °F 97% 29.57 in 10.0 mi East 4.6 mph - N/A   Overcast
5:14 PM 43.7 °F 41.1 °F 43.5 °F 99% 29.57 in 10.0 mi WNW 4.6 mph - N/A   Overcast
5:35 PM 43.7 °F 42.1 °F 43.5 °F 99% 29.55 in 10.0 mi NW 3.5 mph - N/A   Overcast
5:54 PM 44.4 °F - 43.5 °F 97% 29.58 in 10.0 mi Calm Calm - N/A   Overcast
6:15 PM 41.7 °F 38.8 °F 40.3 °F 95% 29.57 in 10.0 mi NNW 4.6 mph - N/A   Overcast
6:20 PM 39.7 °F 36.5 °F 38.8 °F 97% 29.57 in 10.0 mi NNW 4.6 mph - N/A   Overcast
7:02 PM 39.2 °F - 39.2 °F 100% 29.56 in 2.5 mi Calm Calm - N/A   Overcast
7:22 PM 41.0 °F 38.0 °F 41.0 °F 100% 29.56 in 3.0 mi East 4.6 mph - N/A   Overcast
7:46 PM 41.0 °F 38.0 °F 41.0 °F 100% 29.55 in 4.0 mi ESE 4.6 mph - N/A   Overcast
8:02 PM 41.0 °F 39.0 °F 41.0 °F 100% 29.55 in 2.0 mi East 3.5 mph - N/A   Overcast
8:21 PM 42.8 °F 39.3 °F 42.8 °F 100% 29.53 in 2.0 mi ESE 5.8 mph - N/A   Overcast
8:42 PM 42.8 °F 39.3 °F 42.8 °F 100% 29.53 in 5.0 mi ESE 5.8 mph - N/A   Overcast
9:05 PM 42.8 °F 38.6 °F 42.8 °F 100% 29.51 in 1.0 mi East 6.9 mph - N/A   Overcast
9:22 PM 42.8 °F 39.3 °F 42.8 °F 100% 29.49 in 0.5 mi East 5.8 mph - N/A Fog Fog
9:42 PM 41.0 °F 37.1 °F 41.0 °F 100% 29.49 in 0.8 mi SE 5.8 mph - N/A   Overcast
10:01 PM 44.6 °F 39.7 °F 44.6 °F 100% 29.48 in 7.0 mi ESE 9.2 mph - N/A   Overcast
10:22 PM 44.6 °F 39.2 °F 44.6 °F 100% 29.46 in 10.0 mi ESE 10.4 mph - N/A   Overcast
10:43 PM 44.6 °F 38.4 °F 44.6 °F 100% 29.44 in 10.0 mi ESE 12.7 mph - N/A   Overcast
11:02 PM 44.6 °F 39.2 °F 44.6 °F 100% 29.45 in 10.0 mi ESE 10.4 mph - N/A   Mostly Cloudy
11:22 PM 44.6 °F 38.8 °F 44.6 °F 100% 29.41 in 10.0 mi ESE 11.5 mph - N/A   Mostly Cloudy
11:43 PM 46.4 °F 41.1 °F 46.4 °F 100% 29.38 in 10.0 mi ESE 11.5 mph - N/A   Overcast